Location: Gradaro
(45.0833°N, 10.8833°E)
Time: 15:23:01
(UTC+00:00)

NOSS 3-4 (A) - Pass Details

Date: 29 November 2020
Orbit: 879 x 1333 km, 63.4° (Epoch: 21 January)

Event Time Altitude Azimuth Distance (km) Brightness Sun altitude
Exits shadow 04:00:53 68° 255° (WSW) 978 3.2 -26.2°
Maximum altitude 04:01:35 77° 310° (NW) 942 3.2 -26.0°
Drops below altitude 10° 04:07:53 10° 36° (NE) 2,725 6.2 -24.9°
Sets 04:10:35 0° 38° (NE) 3,738 7.0 -24.5°
